Overview Statistics Trail Chart Weather Telemetry Raw packets
 

This is the latest recevied weather packets stored in our database for station/object AA7VG. If no packets are shown the sender has not sent any weather packets the latest 10 day(s).

<< 89 90 91 92 93 94 95 >>
Time Temp. Humidity Pressure Rain* Wind** Luminosity Snow
1787954104 26.11° C 37% 1015.5 hPa 0 mm - - -
1787953803 26.11° C 37% 1015.8 hPa 0 mm - - -
1787953498 25.56° C 38% 1015.9 hPa 0 mm - - -
1787953196 25.56° C 40% 1016.3 hPa 0 mm - - -
1787952895 25.56° C 41% 1016.1 hPa 0 mm - - -
1787952589 25° C 43% 1015.9 hPa 0 mm - - -
1787952288 25° C 43% 1016.1 hPa 0 mm - - -
1787951986 25° C 44% 1016.2 hPa 0 mm - - -
1787951686 24.44° C 45% 1016.2 hPa 0 mm - - -
1787951382 23.89° C 46% 1016.7 hPa 0 mm - - -
1787951078 24.44° C 45% 1016.4 hPa 0 mm - - -
1787950778 23.33° C 50% 1016.3 hPa 0 mm - - -
1787950473 22.78° C 51% 1016.4 hPa 0 mm - - -
1787950170 23.33° C 49% 1016.4 hPa 0 mm - - -
1787949866 23.33° C 49% 1016.6 hPa 0 mm - - -
1787949566 23.33° C 50% 1016.4 hPa 0 mm - - -
1787949261 22.78° C 51% 1016.6 hPa 0 mm - - -
1787948956 22.22° C 54% 1016.4 hPa 0 mm - - -
1787948652 22.22° C 55% 1016.9 hPa 0 mm - - -
1787948347 22.22° C 56% 1016.8 hPa 0 mm - - -
1787948046 21.67° C 60% 1017 hPa 0 mm - - -
1787947740 21.11° C 63% 1016.8 hPa 0 mm - - -
1787947440 21.11° C 63% 1017.1 hPa 0 mm - - -
1787947140 20.56° C 65% 1017.2 hPa 0 mm - - -
1787946838 20° C 66% 1016.9 hPa 0 mm - - -

* Rain latest hour (hover to see other rain measurements)
** Current wind speed in m/s (hover to see current wind gust speed)